GW3160 Weather Reports


time (UTC)temp
F
wind
direction
speed
knots
gust
knots
rain 1hr
in
rain 24hr
in
rain mn
in
humidity
%
barometer
mb
20260509201517 66 73 0.0 0.9 0.00 0.00 0.00 56 1006.8
20260509201015 66 73 0.0 0.0 0.00 0.00 0.00 54 1006.8
20260509200510 66 98 0.9 0.9 0.00 0.00 0.00 55 1006.6
20260509200006 67 66 0.9 1.7 0.00 0.00 0.00 52 1006.5
20260509195501 68 77 0.0 0.0 0.00 0.00 0.00 51 1006.6
20260509194956 68 21 0.0 0.0 0.00 0.00 0.00 52 1006.6
20260509194452 67 20 0.0 0.0 0.00 0.00 0.00 56 1006.4
20260509193949 68 287 0.9 0.9 0.00 0.00 0.00 51 1006.7
20260509193449 68 65 0.0 0.9 0.00 0.00 0.00 49 1006.8
20260509192945 68 335 1.7 1.7 0.00 0.00 0.00 49 1006.7
20260509192442 68 92 0.9 1.7 0.00 0.00 0.00 48 1006.9
20260509191937 71 319 2.6 2.6 0.00 0.00 0.00 46 1006.8
20260509191432 69 294 0.0 0.9 0.00 0.00 0.00 49 1006.9
20260509190928 70 49 0.9 0.9 0.00 0.00 0.00 49 1006.8
20260509190426 73 292 0.9 0.9 0.00 0.00 0.00 44 1006.7
20260509185923 72 64 0.9 0.9 0.00 0.00 0.00 48 1006.7
20260509185420 71 343 1.7 1.7 0.00 0.00 0.00 48 1006.8
20260509184917 71 323 1.7 1.7 0.00 0.00 0.00 44 1006.7
20260509184415 68 66 1.7 2.6 0.00 0.00 0.00 50 1006.7
20260509183911 69 303 1.7 1.7 0.00 0.00 0.00 49 1007.1
20260509183405 68 70 1.7 2.6 0.00 0.00 0.00 51 1006.8
20260509182902 68 52 0.9 0.9 0.00 0.00 0.00 50 1006.9
20260509182359 70 297 3.5 3.5 0.00 0.00 0.00 49 1006.9
20260509181856 69 250 0.9 0.9 0.00 0.00 0.00 49 1007.2
20260509181353 69 42 0.9 0.9 0.00 0.00 0.00 50 1007.7
20260509180851 69 23 3.5 5.2 0.00 0.00 0.00 49 1007.6
20260509180346 69 9 3.5 3.5 0.00 0.00 0.00 48 1007.6
20260509175844 69 6 0.0 0.0 0.00 0.00 0.00 48 1007.8
20260509175340 68 305 0.0 0.0 0.00 0.00 0.00 50 1007.9
20260509174835 66 73 0.9 0.9 0.00 0.00 0.00 57 1007.6
20260509174332 66 128 0.0 0.9 0.00 0.00 0.00 57 1007.8
20260509173828 66 147 1.7 1.7 0.00 0.00 0.00 57 1007.4
20260509173323 64 339 0.9 1.7 0.00 0.00 0.00 58 1007.8
20260509172820 64 51 0.9 0.9 0.00 0.00 0.00 61 1007.9
20260509172316 63 45 0.9 0.9 0.00 0.00 0.00 66 1008.0
20260509171812 64 358 0.9 1.7 0.00 0.00 0.00 62 1008.3
20260509171308 62 23 2.6 2.6 0.00 0.00 0.00 66 1008.4
20260509170805 60 79 2.6 2.6 0.00 0.00 0.00 67 1008.4
20260509170301 61 42 0.9 1.7 0.00 0.00 0.00 68 1008.5
20260509165800 61 62 3.5 3.5 0.00 0.00 0.00 68 1008.5
20260509165255 61 94 0.9 1.7 0.00 0.00 0.00 69 1008.5
20260509164751 61 60 1.7 1.7 0.00 0.00 0.00 68 1008.7
20260509164242 60 55 1.7 1.7 0.00 0.00 0.00 68 1008.6
20260509163744 60 41 1.7 1.7 0.00 0.00 0.00 67 1008.6
20260509163235 60 38 1.7 1.7 0.00 0.00 0.00 67 1008.8
20260509162734 60 21 0.9 0.9 0.00 0.00 0.00 67 1008.9
20260509162228 60 5 0.0 0.0 0.00 0.00 0.00 67 1008.9
20260509161724 60 76 0.0 0.0 0.00 0.00 0.00 67 1008.9
20260509161220 60 121 0.0 0.0 0.00 0.00 0.00 66 1008.8
20260509160715 61 69 1.7 1.7 0.00 0.00 0.00 68 1008.5
20260509160212 60 88 0.9 0.9 0.00 0.00 0.00 66 1008.7
20260509155707 61 70 0.9 1.7 0.00 0.00 0.00 65 1008.5
20260509155204 62 84 0.0 0.9 0.00 0.00 0.00 63 1008.3
20260509154700 62 86 2.6 3.5 0.00 0.00 0.00 63 1008.5
20260509154157 62 101 0.0 0.0 0.00 0.00 0.00 64 1008.5
20260509153654 62 102 0.9 1.7 0.00 0.00 0.00 64 1008.3
20260509153151 62 259 1.7 1.7 0.00 0.00 0.00 63 1008.4
20260509152646 64 67 0.0 0.0 0.00 0.00 0.00 59 1008.5
20260509152144 62 67 0.0 0.0 0.00 0.00 0.00 61 1008.6
20260509151640 63 36 1.7 1.7 0.00 0.00 0.00 59 1008.5
20260509151137 62 81 0.9 0.9 0.00 0.00 0.00 63 1008.4
20260509150636 61 137 1.7 1.7 0.00 0.00 0.00 62 1008.6
20260509150133 61 55 0.9 0.9 0.00 0.00 0.00 61 1008.6
20260509145629 61 20 0.0 0.0 0.00 0.00 0.00 62 1008.7
20260509145125 60 282 1.7 1.7 0.00 0.00 0.00 63 1008.7
20260509144621 60 70 0.0 0.9 0.00 0.00 0.00 61 1008.5
20260509144118 60 69 0.9 0.9 0.00 0.00 0.00 60 1008.6
20260509143616 60 95 1.7 1.7 0.00 0.00 0.00 61 1008.4
20260509143113 60 58 0.0 0.9 0.00 0.00 0.00 60 1008.5
20260509142608 60 62 0.0 0.0 0.00 0.00 0.00 60 1008.8
20260509142104 60 51 0.0 0.0 0.00 0.00 0.00 62 1008.9
20260509141601 60 51 1.7 1.7 0.00 0.00 0.00 61 1008.9
20260509141057 59 86 1.7 1.7 0.00 0.00 0.00 62 1008.9
20260509140555 59 84 0.9 0.9 0.00 0.00 0.00 63 1009.0
20260509140052 59 83 0.0 0.0 0.00 0.00 0.00 62 1008.9
20260509135549 59 84 0.0 0.0 0.00 0.00 0.00 62 1008.9
20260509135047 58 85 0.0 0.0 0.00 0.00 0.00 61 1009.0
20260509134544 57 85 0.0 0.0 0.00 0.00 0.00 64 1009.1
20260509134041 57 84 0.0 0.0 0.00 0.00 0.00 65 1009.1
20260509133538 57 84 0.0 0.0 0.00 0.00 0.00 68 1009.1
20260509133036 57 85 0.9 0.9 0.00 0.00 0.00 67 1009.1
20260509132534 57 85 0.0 0.0 0.00 0.00 0.00 64 1008.8
20260509132032 57 85 0.0 0.0 0.00 0.00 0.00 65 1008.9
20260509131527 57 85 1.7 1.7 0.00 0.00 0.00 65 1009.1
20260509131024 56 85 0.0 0.9 0.00 0.00 0.00 67 1009.1
20260509130520 56 87 0.9 0.9 0.00 0.00 0.00 67 1008.9
20260509130017 56 86 0.0 0.9 0.00 0.00 0.00 70 1008.9
20260509125514 55 86 0.0 0.0 0.00 0.00 0.00 72 1008.9
20260509125010 55 86 0.9 0.9 0.00 0.00 0.00 78 1008.9
20260509124507 55 87 0.0 0.0 0.00 0.00 0.00 80 1008.9
20260509124004 55 87 0.0 0.0 0.00 0.00 0.00 81 1008.9
20260509123502 55 87 0.0 0.0 0.00 0.00 0.00 81 1009.0
20260509122957 55 87 0.0 0.0 0.00 0.00 0.00 81 1009.3
20260509122454 54 87 0.0 0.0 0.00 0.00 0.00 79 1009.2
20260509121951 54 87 0.0 0.0 0.00 0.00 0.00 79 1009.1
20260509121448 54 87 0.0 0.0 0.00 0.00 0.00 80 1009.0
20260509120946 54 87 0.0 0.0 0.00 0.00 0.00 80 1009.1
20260509120444 54 87 0.0 0.0 0.00 0.00 0.00 80 1009.0
20260509115942 53 87 0.0 0.0 0.00 0.00 0.00 78 1009.0
20260509115438 53 87 0.0 0.0 0.00 0.00 0.00 80 1008.8
20260509114936 53 87 0.0 0.0 0.00 0.00 0.00 78 1009.0
20260509114434 53 87 0.0 0.0 0.00 0.00 0.00 80 1009.0
20260509113934 53 87 0.0 0.0 0.00 0.00 0.00 80 1008.9
20260509113430 53 87 0.0 0.0 0.00 0.00 0.00 79 1009.0
20260509112927 53 87 0.0 0.0 0.00 0.00 0.00 78 1008.9
20260509112425 53 87 0.0 0.0 0.00 0.00 0.00 78 1008.8
20260509111921 53 87 0.0 0.0 0.00 0.00 0.00 76 1008.8
20260509111419 53 87 0.0 0.0 0.00 0.00 0.00 80 1008.8
20260509110916 53 87 0.0 0.0 0.00 0.00 0.00 75 1008.9
20260509110412 53 87 0.0 0.0 0.00 0.00 0.00 76 1008.8
20260509105910 53 87 0.0 0.9 0.00 0.00 0.00 78 1008.7
20260509105408 52 87 0.9 0.9 0.00 0.00 0.00 78 1008.7
20260509104905 52 87 0.0 0.0 0.00 0.00 0.00 78 1008.7
20260509104402 52 87 0.0 0.0 0.00 0.00 0.00 77 1008.6
20260509103859 51 87 0.0 0.0 0.00 0.00 0.00 78 1008.6
20260509103356 51 87 0.0 0.0 0.00 0.00 0.00 79 1008.4
20260509102855 51 87 0.0 0.0 0.00 0.00 0.00 79 1008.4
20260509102352 51 87 0.0 0.0 0.00 0.00 0.00 76 1008.1
20260509101847 51 87 0.0 0.0 0.00 0.00 0.00 77 1008.3
20260509101344 51 87 0.0 0.0 0.00 0.00 0.00 77 1008.3
20260509100842 52 87 0.0 0.0 0.00 0.00 0.00 76 1008.2
20260509100339 52 87 0.0 0.0 0.00 0.00 0.00 75 1008.2
20260509095835 52 87 0.0 0.0 0.00 0.00 0.00 75 1008.4
20260509095332 52 87 0.0 0.0 0.00 0.00 0.00 75 1008.2
20260509094830 52 87 0.0 0.0 0.00 0.00 0.00 76 1008.2
20260509094326 52 87 0.0 0.0 0.00 0.00 0.00 75 1008.3
20260509093824 52 87 0.0 0.0 0.00 0.00 0.00 76 1008.4
20260509093321 52 87 0.0 0.0 0.00 0.00 0.00 74 1008.3
20260509092820 51 87 0.0 0.0 0.00 0.00 0.00 77 1008.5
20260509092317 52 87 0.0 0.0 0.00 0.00 0.00 78 1008.3
20260509091815 52 87 0.0 0.0 0.00 0.00 0.00 75 1008.2
20260509091311 52 87 0.0 0.0 0.00 0.00 0.00 74 1008.5
20260509090809 52 87 0.0 0.0 0.00 0.00 0.00 76 1008.3
20260509090306 52 87 0.0 0.0 0.00 0.00 0.00 76 1008.3
20260509085803 52 87 0.0 0.0 0.00 0.00 0.00 76 1008.4
20260509085301 52 87 0.0 0.0 0.00 0.00 0.00 77 1008.4
20260509084757 52 87 0.0 0.0 0.00 0.00 0.00 75 1008.3
20260509084254 52 87 0.0 0.0 0.00 0.00 0.00 75 1008.5
20260509083752 52 87 0.0 0.0 0.00 0.00 0.00 77 1008.4
20260509083248 52 87 0.0 0.0 0.00 0.00 0.00 76 1008.4
20260509082744 52 87 0.0 0.0 0.00 0.00 0.00 75 1008.4
20260509082241 52 87 0.0 0.0 0.00 0.00 0.00 76 1008.3
20260509081738 52 87 0.0 0.0 0.00 0.00 0.00 76 1008.4
20260509081236 52 87 0.0 0.0 0.00 0.00 0.00 75 1008.4
20260509080734 52 87 0.0 0.0 0.00 0.00 0.00 78 1008.6
20260509080231 52 87 0.0 0.0 0.00 0.00 0.00 76 1008.9
20260509075729 51 87 0.0 0.0 0.00 0.00 0.00 77 1008.7
20260509075227 52 87 0.0 0.0 0.00 0.00 0.00 76 1008.7
20260509074723 52 87 0.0 0.0 0.00 0.00 0.00 75 1008.7
20260509074221 52 87 0.0 0.0 0.00 0.00 0.00 75 1008.7
20260509073717 51 87 0.0 0.0 0.00 0.00 0.00 75 1008.7
20260509073213 51 87 0.0 0.0 0.00 0.00 0.00 75 1008.9
20260509072710 51 87 0.0 0.0 0.00 0.00 0.00 76 1008.9
20260509072207 51 87 0.0 0.0 0.00 0.00 0.00 76 1008.7
20260509071703 51 87 0.0 0.0 0.00 0.00 0.00 76 1008.7
20260509071201 51 87 0.0 0.0 0.00 0.00 0.00 76 1008.8
20260509070658 51 87 0.0 0.0 0.00 0.00 0.00 76 1008.9
20260509070154 51 87 0.0 0.0 0.00 0.00 0.00 76 1008.9
20260509065650 51 87 0.0 0.0 0.00 0.00 0.00 77 1009.0
20260509065146 51 87 0.0 0.0 0.00 0.00 0.00 78 1008.9
20260509064643 51 87 0.0 0.0 0.00 0.00 0.00 77 1009.0
20260509064141 51 87 0.0 0.0 0.00 0.00 0.00 78 1008.9
20260509063638 51 87 0.0 0.0 0.00 0.00 0.00 78 1009.0
20260509063134 51 87 0.0 0.0 0.00 0.00 0.00 78 1009.1
20260509062632 50 87 0.0 0.0 0.00 0.00 0.00 79 1009.2
20260509062128 50 87 0.0 0.0 0.00 0.00 0.00 78 1009.3
20260509061625 50 87 0.0 0.0 0.00 0.00 0.00 78 1009.3
20260509061123 50 87 0.0 0.0 0.00 0.00 0.00 78 1009.3
20260509060620 51 87 0.0 0.0 0.00 0.00 0.00 77 1009.1
20260509060110 51 87 0.0 0.0 0.00 0.00 0.00 76 1009.2
20260509055606 51 87 0.0 0.0 0.00 0.00 0.00 77 1009.3
20260509055102 51 87 0.0 0.0 0.00 0.00 0.00 76 1009.5
20260509054559 51 87 0.0 0.0 0.00 0.00 0.00 74 1009.4
20260509054057 51 87 0.0 0.0 0.00 0.00 0.00 75 1009.5
20260509053555 51 87 0.0 0.0 0.00 0.00 0.00 75 1009.4
20260509053052 51 87 0.0 0.0 0.00 0.00 0.00 75 1009.3
20260509052550 51 87 0.0 0.0 0.00 0.00 0.00 75 1009.3
20260509052047 51 87 0.0 0.0 0.00 0.00 0.00 74 1009.5
20260509051545 51 87 0.0 0.0 0.00 0.00 0.00 74 1009.6
20260509051042 51 87 0.0 0.0 0.00 0.00 0.00 74 1009.4
20260509050539 51 87 0.0 0.0 0.00 0.00 0.00 74 1009.6
20260509050035 51 87 0.0 0.0 0.00 0.00 0.00 74 1009.7
20260509045533 51 87 0.0 0.0 0.00 0.00 0.00 77 1009.5
20260509045029 51 87 0.0 0.0 0.00 0.00 0.00 74 1009.3
20260509044527 51 87 0.0 0.0 0.00 0.00 0.00 75 1009.5
20260509044024 51 87 0.0 0.0 0.00 0.00 0.00 74 1009.3
20260509043520 51 87 0.0 0.0 0.00 0.00 0.00 73 1009.2
20260509043016 51 87 0.0 0.0 0.00 0.00 0.00 74 1009.3
20260509042512 51 87 0.0 0.0 0.00 0.00 0.00 73 1009.4
20260509042009 51 87 0.0 0.0 0.00 0.00 0.00 73 1009.5
20260509041505 51 87 0.0 0.0 0.00 0.00 0.00 73 1009.5
20260509041003 51 87 0.0 0.0 0.00 0.00 0.00 73 1009.3
20260509040501 51 87 0.0 0.0 0.00 0.00 0.00 72 1009.5
20260509035957 52 87 0.0 0.0 0.00 0.00 0.00 71 1009.4
20260509035454 52 87 0.0 0.0 0.00 0.00 0.00 73 1009.6
20260509034951 52 87 0.0 0.0 0.00 0.00 0.00 72 1009.4
20260509034449 52 87 0.0 0.0 0.00 0.00 0.00 71 1009.6
20260509033946 52 87 0.0 0.0 0.00 0.00 0.00 70 1009.4
20260509033443 53 87 0.0 0.0 0.00 0.00 0.00 72 1009.5
20260509032939 52 87 0.0 0.0 0.00 0.00 0.00 70 1009.6
20260509032437 53 87 0.0 0.0 0.00 0.00 0.00 72 1009.8
20260509031934 53 87 0.0 0.0 0.00 0.00 0.00 70 1009.6
20260509031432 53 87 0.0 0.0 0.00 0.00 0.00 70 1009.7
20260509030929 53 87 0.0 0.0 0.00 0.00 0.00 69 1009.6
20260509030427 53 87 0.0 0.0 0.00 0.00 0.00 68 1009.6
20260509025924 53 87 0.0 0.0 0.00 0.00 0.00 70 1009.7
20260509025419 54 86 0.0 0.0 0.00 0.00 0.00 69 1009.5
20260509024914 54 87 0.0 0.0 0.00 0.00 0.00 70 1009.8
20260509024411 54 87 0.0 0.0 0.00 0.00 0.00 67 1009.6
20260509023908 54 87 0.0 0.0 0.00 0.00 0.00 70 1009.8
20260509023406 54 86 0.0 0.0 0.00 0.00 0.00 68 1009.6
20260509022902 55 87 0.0 0.0 0.00 0.00 0.00 68 1009.5
20260509022359 54 87 0.0 0.0 0.00 0.00 0.00 66 1010.0
20260509021856 54 86 0.0 0.0 0.00 0.00 0.00 69 1009.7
20260509021353 54 86 0.0 0.0 0.00 0.00 0.00 70 1009.7
20260509020851 54 87 0.0 0.0 0.00 0.00 0.00 71 1010.0
20260509020349 54 87 0.0 0.0 0.00 0.00 0.00 70 1010.0
20260509015846 54 86 0.0 0.0 0.00 0.00 0.00 69 1009.6
20260509015344 53 87 0.0 0.0 0.00 0.00 0.00 68 1009.6
20260509014840 53 91 0.0 0.0 0.00 0.00 0.00 69 1009.8
20260509014337 53 111 0.9 0.9 0.00 0.00 0.00 71 1009.8
20260509013834 53 100 0.0 0.0 0.00 0.00 0.00 70 1010.0
20260509013330 53 100 0.0 0.0 0.00 0.00 0.00 69 1009.7
20260509012826 54 100 0.0 0.0 0.00 0.00 0.00 68 1010.0
20260509012323 54 101 0.0 0.0 0.00 0.00 0.00 68 1009.8
20260509011821 54 101 0.9 0.9 0.00 0.00 0.00 67 1009.8
20260509011318 54 101 0.9 0.9 0.00 0.00 0.00 68 1009.4
20260509010816 54 101 0.0 0.0 0.00 0.00 0.00 68 1009.4
20260509010312 55 101 0.0 0.0 0.00 0.00 0.00 68 1009.6
20260509005810 55 101 0.0 0.0 0.00 0.00 0.00 67 1009.5
20260509005308 56 101 0.0 0.0 0.00 0.00 0.00 64 1009.4
20260509004802 57 101 0.0 0.0 0.00 0.00 0.00 65 1009.6
20260509004259 57 101 0.0 0.0 0.00 0.00 0.00 63 1009.5
20260509003757 57 101 0.0 0.0 0.00 0.00 0.00 64 1009.4
20260509003254 57 101 0.0 0.0 0.00 0.00 0.00 64 1009.5
20260509002751 58 101 0.0 0.0 0.00 0.00 0.00 62 1009.5
20260509002249 58 101 0.0 0.0 0.00 0.00 0.00 61 1009.7
20260509001746 58 101 0.0 0.0 0.00 0.00 0.00 61 1009.5
20260509001242 58 101 0.0 0.0 0.00 0.00 0.00 61 1009.4
20260509000740 59 101 0.0 0.0 0.00 0.00 0.00 61 1009.4
20260509000237 59 101 0.0 0.0 0.00 0.00 0.00 58 1009.2
20260508235734 59 101 0.0 0.0 0.00 0.00 0.00 57 1009.0
20260508235230 60 101 0.9 0.9 0.00 0.00 0.00 56 1009.1
20260508234727 60 101 0.0 0.9 0.00 0.00 0.00 55 1009.0
20260508234223 60 101 0.9 0.9 0.00 0.00 0.00 55 1009.0
20260508233718 61 101 0.0 0.0 0.00 0.00 0.00 53 1009.1
20260508233215 61 101 0.0 0.0 0.00 0.00 0.00 53 1009.1
20260508232712 62 100 0.0 0.0 0.00 0.00 0.00 50 1008.8
20260508232209 62 100 0.0 0.0 0.00 0.00 0.00 43 1009.0
20260508231707 63 100 0.0 0.0 0.00 0.00 0.00 50 1008.7
20260508231203 64 100 0.0 0.0 0.00 0.00 0.00 47 1008.8
20260508230700 64 157 0.9 0.9 0.00 0.00 0.00 46 1008.9
20260508230156 65 157 0.0 0.0 0.00 0.00 0.00 42 1008.8
20260508225655 66 216 0.9 0.9 0.00 0.00 0.00 37 1008.9
20260508225150 66 132 0.0 0.0 0.00 0.00 0.00 41 1008.8
20260508224648 66 137 0.0 0.0 0.00 0.00 0.00 42 1009.0
20260508224146 66 125 0.9 0.9 0.00 0.00 0.00 37 1008.8
20260508223643 66 179 0.0 0.0 0.00 0.00 0.00 37 1009.1
20260508223140 66 153 0.0 0.0 0.00 0.00 0.00 38 1009.0
20260508222638 67 358 0.0 0.0 0.00 0.00 0.00 38 1008.9
20260508222135 68 183 0.9 0.9 0.00 0.00 0.00 35 1008.9
20260508221631 67 191 0.0 0.9 0.00 0.00 0.00 36 1009.1
20260508221126 66 209 0.9 1.7 0.00 0.00 0.00 37 1009.0
20260508220623 66 199 0.9 0.9 0.00 0.00 0.00 37 1008.9
20260508220120 67 236 0.9 0.9 0.00 0.00 0.00 35 1009.0
20260508215617 67 358 0.9 0.9 0.00 0.00 0.00 34 1008.8
20260508215113 67 125 0.0 0.0 0.00 0.00 0.00 37 1009.0
20260508214611 68 70 0.9 0.9 0.00 0.00 0.00 35 1008.7
20260508214108 67 144 0.0 0.0 0.00 0.00 0.00 34 1008.9
20260508213604 67 58 0.0 0.0 0.00 0.00 0.00 34 1009.0
20260508213100 67 263 0.9 0.9 0.00 0.00 0.00 34 1009.1
20260508212557 68 91 1.7 1.7 0.00 0.00 0.00 33 1009.0
20260508212053 68 285 1.7 2.6 0.00 0.00 0.00 35 1009.0
20260508211549 68 67 0.9 0.9 0.00 0.00 0.00 35 1009.1
20260508211045 69 195 0.9 0.9 0.00 0.00 0.00 35 1009.1
20260508210542 69 22 0.0 0.9 0.00 0.00 0.00 33 1009.3
20260508210040 69 342 0.9 0.9 0.00 0.00 0.00 31 1009.3
20260508205536 68 142 0.9 0.9 0.00 0.00 0.00 36 1009.2
20260508205033 69 11 0.9 0.9 0.00 0.00 0.00 34 1009.2
20260508204530 69 174 0.0 0.9 0.00 0.00 0.00 36 1009.5
20260508204025 68 8 0.0 0.0 0.00 0.00 0.00 33 1009.4
20260508203521 67 142 0.0 0.0 0.00 0.00 0.00 34 1009.5
20260508203018 67 35 0.9 0.9 0.00 0.00 0.00 34 1009.4
20260508202515 67 138 0.9 1.7 0.00 0.00 0.00 36 1009.6
20260508202012 67 51 0.9 0.9 0.00 0.00 0.00 33 1009.6